Location: Cazavet
(43.0017°N, 1.0431°E)
Time: 23:25:08
(UTC+00:00)

GRACE-FO 1 - Pass Details

Date: 18 January 2026
Orbit: 448 x 461 km, 89.0° (Epoch: 14 February)

Event Time Altitude Azimuth Distance (km) Brightness Sun altitude
Rises 06:49:42 0° 186° (S) 2,446 8.4 -6.3°
Reaches altitude 10° 06:51:45 10° 190° (S) 1,582 7.3 -6.0°
Maximum altitude 06:55:08 60° 271° (W) 526 4.5 -5.4°
Drops below altitude 10° 06:58:35 10° 352° (N) 1,605 6.9 -4.8°
Sets 07:00:40 0° 356° (N) 2,487 7.9 -4.5°
